Stephen Simmons

Recruteur en chef - Harrogate Town
9 Oct 2027
Samedi
Processus

Personnalité

Adaptabilité (4) Ambition (1) Controverse (3) Loyauté (17) Pression (3) Professionnalisme (16) Sportivité (3) Tempérament (18)

Profil

Style d'entraînement Démocratique
Diplôme National B
Détermination 4
Gestion des joueurs 9
Motivation 8
Discipline 8
Satisfaction professionnelle
100%
Fatigue
0%
Rôle Recruteur en chef
Salaire 50.7K p/s
Contrat 14.03.2030

Performance

Comportement Bon
Efficacité de l'entraînement
39%
Développement des joueurs
15%
Prévention des blessures
50%
Mise en place tactique
45%

Événements récents

A participé à une réunion de recrutement 7j
A participé à une réunion de recrutement 7j
A participé à une réunion de recrutement 14j
A participé à une réunion de recrutement 14j
A participé à une réunion de recrutement 21j
A participé à une réunion de recrutement 21j
A participé à une réunion de recrutement 28j
A participé à une réunion de recrutement 28j

Suivi en cours

85
Joueur Club Statut Capacité Confiance Observé Dernière observation Dernier vote
Darren Robinson Doncaster Rovers Actif 75 / 85 48% 1 14.06.2027 -
Niall Ennis Blackpool Actif 123 / 119 40% 6 25.05.2027 -
Jalen Blesa Rio Ave Actif 131 / 105 40% 2 21.05.2027 -
Marcus Browne AFC Wimbledon Actif 96 / 117 40% 3 21.05.2027 -
Lewis McCann Fleetwood Town Actif 99 / 105 40% 5 20.05.2027 -
Daniel Udoh Salford City Actif 100 / 101 40% 3 20.05.2027 -
Shayne Lavery Cambridge United Actif 97 / 105 40% 1 16.05.2027 -
Matías Contrera Northampton Town Actif 99 / 98 40% 3 13.05.2027 -
Camilo Durán Bloemfontein Celtic Actif 129 / 121 40% 10 12.05.2027 -
Walid Cheddira Avellino Actif 137 / 124 40% 1 10.05.2027 -
Will Davies Fleetwood Town Actif 76 / 90 40% 1 09.05.2027 -
Ronan Hale Gillingham Actif 108 / 102 40% 5 08.05.2027 -
Kyle Wootton Stockport County Actif 124 / 121 40% 3 08.05.2027 -
Bradley Fink Wycombe Wanderers Actif 102 / 100 40% 1 06.05.2027 -
Kelly Saravanan Salford City Actif 122 / 105 40% 1 05.05.2027 -
Freddie Draper Lincoln City Actif 100 / 117 40% 4 03.05.2027 -
Stephen Humphrys Bradford City Actif 117 / 110 40% 2 02.05.2027 -
Solly Khunyedi Bloemfontein Celtic Actif 104 / 113 40% 3 01.05.2027 -
Wandile Duba Maritzburg United Actif 89 / 106 40% 7 28.04.2027 -
John Yeboah Venezia Actif 134 / 125 40% 4 28.04.2027 -
Jake Beesley Burton Albion Actif 111 / 105 40% 1 24.04.2027 -
Rui Costa Port Vale Actif 111 / 98 40% 3 23.04.2027 -
Matty Stevens AFC Wimbledon Actif 93 / 99 40% 4 23.04.2027 -
Aaron Drinan Swindon Town Actif 101 / 92 40% 1 22.04.2027 -
Christian Saydee Wigan Athletic Actif 118 / 108 40% 5 15.04.2027 -
Mees Rijks Bristol Rovers Actif 105 / 111 40% 3 14.04.2027 -
Jerome Karelse Golden Arrows Actif 104 / 107 40% 3 08.04.2027 -
Thomas Agyepong Berekum Chelsea Actif 84 / 104 40% 2 04.04.2027 -
Harrison Inusah BA All Stars Actif 96 / 93 40% 2 02.04.2027 -
Camillo Tavernelli Arezzo Actif 109 / 107 40% 1 02.04.2027 -
Aaron Collins Milton Keynes Dons Actif 105 / 116 40% 7 25.03.2027 -
Wasiu Jimoh WAFA Actif 75 / 110 40% 2 22.03.2027 -
Samuel Kalu Botev Plovdiv Actif 104 / 137 40% 2 19.03.2027 -
Malik Mothersille Stockport County Actif 99 / 127 40% 1 19.03.2027 -
Dale Taylor Blackpool Actif 113 / 126 40% 6 18.03.2027 -
Jeffrey Adjei Wa All Stars Actif 89 / 79 40% 3 11.03.2027 -
Sibusiso Tshabalala Polokwane City Actif 107 / 97 40% 1 10.03.2027 -
Lorent Tolaj Plymouth Argyle Actif 105 / 125 40% 1 07.03.2027 Plus d'infos
Williams Mokoena Free State Stars Actif 77 / 85 40% 3 06.03.2027 -
Calum Kavanagh Oldham Athletic Actif 92 / 91 40% 1 02.03.2027 -
Stephen Amankona Aduana Stars Actif 75 / 111 40% 3 28.02.2027 -
Lamine Cissé Peterborough United Actif 109 / 117 40% 4 26.02.2027 -
Luke Baartman Bidvest Wits Actif 105 / 102 40% 2 23.02.2027 -
Paul Mbong Floriana Actif 93 / 92 40% 1 18.02.2027 -
Robert Mizo Aswan Actif 106 / 94 40% 2 28.12.2026 -
James Kirby Marsaxlokk Actif 81 / 96 40% 2 25.12.2026 -
Fabrizio Cavegn Bristol Rovers Actif 119 / 97 40% 1 25.12.2026 -
Armstrong Oko-Flex Levski Actif 110 / 114 40% 1 20.12.2026 -
Ammar Ramadan DAC Dunajska Streda Actif 129 / 110 40% 2 19.12.2026 -
Elijah Adebayo Luton Town Actif 117 / 113 40% 2 16.12.2026 -
Samuel Tetteh Ashanti Gold Actif 111 / 119 40% 1 13.12.2026 -
Yeangel Montero Naxxar Lions Actif 99 / 96 40% 1 12.12.2026 -
Prince Ukachukwu Victoria United Actif 106 / 109 40% 2 11.12.2026 -
Thomas Appiah Hearts of Oak Actif 81 / 103 40% 1 08.12.2026 -
Judas Moseamedi Jomo Cosmos Actif 91 / 112 40% 2 29.11.2026 -
Davis Keillor-Dunn Wrexham Actif 114 / 106 40% 2 27.11.2026 -
Joshua Kayode Lucko Actif 81 / 94 40% 2 17.11.2026 -
Marin Benko Zadar Actif 129 / 117 40% 1 15.11.2026 -
Iqraam Rayners Mamelodi Sundowns Actif 125 / 120 40% 3 25.10.2026 -
Kagiso Malinga Bidvest Wits Actif 100 / 118 40% 1 25.10.2026 -
Jere Vrcić Birkirkara Actif 96 / 101 40% 1 19.10.2026 -
Aaron Connolly Ruch Actif 137 / 112 40% 3 18.10.2026 -
Maclyn Biokpo Jenewari Rivers United Actif 97 / 121 40% 1 18.10.2026 -
Sam Smith Wrexham Actif 115 / 116 40% 1 17.10.2026 -
Jack Vale Spartak Myjava Actif 72 / 74 40% 1 14.10.2026 -
Samuel Anakwe Remo Stars Actif 83 / 91 40% 2 07.10.2026 -
Duncan Watmore Bristol Rovers Actif 120 / 107 40% 1 07.10.2026 -
Lebo Mothiba Mamelodi Sundowns Actif 116 / 118 40% 2 05.10.2026 -
Joseph Atule Barau Actif 72 / 111 40% 1 03.10.2026 -
Bruno Gomes Valletta Actif 107 / 88 40% 1 03.10.2026 -
Mathias Kvistgaarden Norwich City Actif 105 / 108 40% 1 29.09.2026 -
Chukwuemeka Obioma Abia Warriors Actif 89 / 111 40% 1 24.09.2026 -
Cristian Dájome Vancouver Whitecaps Actif 136 / 140 40% 1 21.09.2026 -
Jorge Obregón Deportivo Pasto Actif 116 / 121 40% 1 21.09.2026 -
Emiliano Marcondes Halmstad Actif 130 / 88 40% 3 20.09.2026 -
Eden Januzaj KV Oostende Actif 119 / 113 40% 1 18.09.2026 -
Chineme Chinonso Ikorodu City Actif 105 / 92 40% 1 15.09.2026 -
Chisom Chikatara Bendel Insurance Actif 105 / 85 40% 1 15.09.2026 -
Ibrahim Aliyu Houston Dynamo Actif 112 / 112 40% 2 12.09.2026 -
Fernando Mimbacas Juventud Actif 112 / 103 40% 1 12.09.2026 -
Auwalu Ali Malam Kano Pillars Actif 72 / 104 40% 1 31.08.2026 -
Derrick Etienne Jr. Toronto FC Actif 122 / 106 40% 1 31.08.2026 -
Rafiki Saïd Wolverhampton Actif 131 / 127 40% 1 24.08.2026 -
Johnson Osong Derby County Actif 83 / 84 48% 1 17.08.2026 -
Nəriman Axundzadə Columbus Crew Actif 107 / 130 40% 1 03.08.2026 -